Showing default

HAWK-14C, 68441

Orbit data source: Space-Track

HAWK-14C, 68441 is a payload satellite owned by HawkEye 360 (US) in SSO that was launched on Mon, 30 Mar 2026 UTC via an FALCON 9 launch vehicle from the Air Force Western Test Range (AFWTR). Payload-class satellites include a variety of spacecraft equipped with specific instruments for various scientific and technological missions. These include communications satellites like Starlink; space stations such as the ISS; scientific satellites like the Hubble; Earth observation satellites from companies like Planet Labs, Umbra, and HawkEye 360; GPS; miniature CubeSats for education and research; and military/defense satellites.

Loading next visibility...
Identifier
68441, 2026-067AB
Orbit
SSO
Country
Flag of USUS
Related business
Manufacturer
UTIAS-SFL
Mission
Operational Commercial Sigint
Bus & Motor
HAWK2G, Unknown motor
Mass
31 kg wet, 30 kg dry
Launch date (UTC)
2026-03-30 (6 months ago)
Launch vehicle
FALCON 9
Launch site
Air Force Western Test Range (AFWTR)
Object type
Payload
Rocket body
Debris
Shape & HBR
Box + 2 Pan, 1.0 m
Radar Cross Section
0.240 m², Medium (>0.1 m² and < 1m²)

Expand to show TLE details & history
Last TLE update: 1 day ago

TLE from 1 day ago
0 HAWK-14C
1 68441U 26067AB  26262.31196562  .00002991  00000-0  14671-3 0  9998
2 68441  97.4588 219.3255 0004548 100.8895 259.2851 15.18874570 26225
Epoch: 2026-09-19T07:29Z
TLE epoch observation values (Epoch: 2026-09-19T07:29:13.829Z)
Latitude
-0.00006°
Longitude
108.79558°
Altitude
512.912 km
Speed
7.607 km/s
True Right ascension
14h 37m 18s
True Declination
0° 00' 00"
Sunlit
Object was in daylight at epoch
Visualization orbit readout
Latitude
Unknown
Longitude
Unknown
Altitude
Unknown
Speed
Unknown
Apparent Right ascension
Unknown
Apparent Declination
Unknown
Sunlit
N/A
Visualization observer readout
Local Sidereal Time
06:54:01
Azimuth
Unknown
Elevation
Unknown
Doppler factor
Unknown
Orbital elements
Apogee altitude
509.341 km
Perigee altitude
503.079 km
Semi-major axis
6,884.347 km
Eccentricity
0.00045
Inclination
97.4588°
RAAN
219.3255°
Arg. of periapsis
100.8895°
True anomaly
259.2339°
Mean anomaly
259.2851°
Eccentric anomaly
259.2595°
Mean motion
3.7997 °/min
Orbital period
94.74 mins
BSTAR
0.00014671
Loading maneuver chart data...
Computing Atmospheric mass density...
Loading historical data...
Loading historical data...
Loading historical data...
Loading historical data...
Loading historical data...
Loading historical data...
Loading historical data...

Documentation

Showing up to 5 results
|